Location: Unspecified
(0.0000°N, 0.0000°E)
Time: 00:45:31
(UTC+00:00)

ISS - Pass Details

Date: 24 March 2017
Orbit: 399 x 409 km, 51.6° (Epoch: 30 March)

Event Time Altitude Azimuth Distance (km) Brightness Sun altitude
Rises 19:01:53 0° 239° (WSW) 2,297 1.0 -13.9°
Reaches altitude 10° 19:04:19 10° 257° (WSW) 1,438 0.2 -14.5°
Maximum altitude 19:06:45 20° 306° (NW) 996 -1.1 -15.1°
Drops below altitude 10° 19:09:10 10° 355° (N) 1,435 -1.0 -15.7°
Sets 19:11:36 0° 13° (NNE) 2,291 -0.1 -16.4°
